COSMOS 1275 DEB, 42101

Orbit data source: Space-Track

COSMOS 1275 DEB, 42101 is space debris in LEO originally from a launch on Thu, 04 Jun 1981 UTC launched from the Plesetsk Missile And Space Complex (PKMTR). Debris objects in space refer to the collection of defunct objects orbiting the Earth. Examples of debris include non-operational satellites, rocket bodies, and fragments generated from explosions, collisions, or faulty payload assembly.

Loading next visibility...
Identifier
42101, 1981-053PM
Orbit
LEO
Country
Flag of CISCIS
Related business
Manufacturer
Unknown
Mission
Spacecraft
Bus & Motor
Unknown
Mass
Unknown
Launch date (UTC)
1981-06-04 (45 years ago)
Launch vehicle
Unknown
Launch site
Plesetsk Missile And Space Complex (PKMTR)
Object type
Payload
Rocket body
Debris
Shape & HBR
Unknown shape, 0.1 m
Radar Cross Section
Small (<0.1 m²)

Expand to show TLE details & history
Last TLE update: 2 days ago

TLE from 2 days ago
0 COSMOS 1275 DEB
1 42101U 81053PM  25341.51890570  .00056065  00000-0  64393-2 0  9994
2 42101  82.7603  62.7483 0004177 267.3742  92.6996 14.85543983585296
Epoch: 2025-12-07T12:27Z
TLE epoch observation values (Epoch: 2025-12-07T12:27:13.452Z)
Latitude
-0.00009°
Longitude
159.41111°
Altitude
615.066 km
Speed
7.551 km/s
True Right ascension
04h 10m 59s
True Declination
0° 00' 00"
Sunlit
Object was in full shadow at epoch
Visualization orbit readout
Latitude
Unknown
Longitude
Unknown
Altitude
Unknown
Speed
Unknown
Apparent Right ascension
Unknown
Apparent Declination
Unknown
Sunlit
N/A
Visualization observer readout
Local Sidereal Time
07:17:24
Azimuth
Unknown
Elevation
Unknown
Doppler factor
Unknown
Orbital elements
Apogee altitude
611.802 km
Perigee altitude
605.965 km
Semi-major axis
6,987.021 km
Eccentricity
0.00042
Inclination
82.7603°
RAAN
62.7483°
Arg. of periapsis
267.3742°
True anomaly
92.74741°
Mean anomaly
92.6996°
Eccentric anomaly
92.72351°
Mean motion
3.71625 °/min
Orbital period
96.87 mins
BSTAR
0.0064393
Loading maneuver chart data...
Computing Atmospheric mass density...

Documentation

Showing up to 5 results
|